Location: Star Dogged Moon Observatory
(29.7756°N, 82.0783°W)
Time: 01:55:13
(UTC-04:00)

Amateur Radio Satellites - All Passes

Search period start: 23 October 2014 01:25
Search period end: 24 October 2014 01:25
Location: Star Dogged Moon Observatory, 29.7756°N, 82.0783°W

Satellite Date Start Highest point End Downlink Frequencies (MHz)
Time Altitude Azimuth
Oscar 19 23 Oct 02:22:25 02:27:00 33° 98° (E) 02:31:33 437.125 CW, 437.150 USB
AO-27 23 Oct 02:35:56 02:39:11 17° 95° (E) 02:42:23 436.795 MHz FM
UOSAT-12 23 Oct 02:47:57 02:49:33 12° 253° (WSW) 02:51:10 437.025 FM, 437.400 FM
Oscar 16 23 Oct 03:07:22 03:12:29 78° 284° (WNW) 03:17:35 437.025 USB, Beacon 2401.1428
JAS-1B 23 Oct 03:08:09 03:15:04 78° 104° (ESE) 03:23:23 435.800 - 435.900 CW/SSB
AO-Echo 23 Oct 03:19:24 03:24:43 69° 102° (ESE) 03:29:58 ?
PCSat 23 Oct 03:22:52 03:25:10 13° 103° (ESE) 03:27:29 145.825 MHz
Uribyol 2 23 Oct 03:23:09 03:28:17 58° 101° (E) 03:33:21 436.500 FM
ITAMSAT 1 23 Oct 03:28:36 03:33:46 62° 101° (ESE) 03:38:54 435.822 SSB
Gurwin Techsat 1B 23 Oct 03:36:19 03:41:10 35° 98° (E) 03:45:59 435.225 FM
TMSAT-1 23 Oct 03:48:59 03:53:46 34° 98° (E) 03:58:32 436.925 FM
Oscar 19 23 Oct 04:02:15 04:06:05 22° 291° (WNW) 04:09:54 437.125 CW, 437.150 USB
AO-27 23 Oct 04:13:52 04:18:47 43° 287° (WNW) 04:23:42 436.795 MHz FM
Sapphire 23 Oct 04:39:48 04:45:11 76° 112° (ESE) 04:50:35 437.095 MHz 1200 baud AX-25 AFSK
AO-Echo 23 Oct 05:01:03 05:02:48 12° 295° (WNW) 05:04:34 ?
JAS-1B 23 Oct 05:01:32 05:05:13 15° 294° (WNW) 05:09:11 435.800 - 435.900 CW/SSB
PCSat 23 Oct 05:02:40 05:07:59 59° 296° (WNW) 05:13:20 145.825 MHz
Uosat F 23 Oct 05:03:23 05:07:23 24° 97° (E) 05:11:22 435.120 FM
Uribyol 2 23 Oct 05:04:51 05:07:11 13° 294° (WNW) 05:09:30 436.500 FM
ITAMSAT 1 23 Oct 05:10:35 05:12:39 12° 295° (WNW) 05:14:43 435.822 SSB
Gurwin Techsat 1B 23 Oct 05:16:54 05:20:50 22° 291° (WNW) 05:24:46 435.225 FM
JAS-2 23 Oct 05:22:08 05:25:38 13° 91° (E) 05:29:05 435.800 - 435.900 CW/SSB, 435.910 FM
AO-7 23 Oct 05:29:05 05:37:18 61° 104° (ESE) 05:45:30 29.400 - 29.500 MHz
TMSAT-1 23 Oct 05:29:25 05:33:25 22° 291° (WNW) 05:37:25 436.925 FM
OPAL 23 Oct 05:36:19 05:41:21 54° 72° (ENE) 05:46:20 ?
Sapphire 23 Oct 06:27:04 06:29:08 12° 308° (NW) 06:31:12 437.095 MHz 1200 baud AX-25 AFSK
Uosat F 23 Oct 06:41:46 06:46:04 29° 289° (WNW) 06:50:22 435.120 FM
PANSAT 23 Oct 06:56:54 06:58:39 13° 154° (SSE) 07:00:25 not established
JAS-2 23 Oct 07:03:21 07:11:14 90° 289° (WNW) 07:18:59 435.800 - 435.900 CW/SSB, 435.910 FM
STRAND 1 23 Oct 07:17:40 07:22:36 51° 74° (ENE) 07:27:34 ?
OPAL 23 Oct 07:18:02 07:20:24 13° 264° (W) 07:22:45 ?
AO-7 23 Oct 07:23:08 07:29:26 25° 298° (WNW) 07:35:46 29.400 - 29.500 MHz
Hamsat 23 Oct 07:32:32 07:36:37 52° 284° (WNW) 07:40:42 145.90 MHz
RS-15 23 Oct 07:54:07 08:04:42 44° 55° (NE) 08:15:38 29.354 - 29.394 USB, Beacon 29.352 USB
Saudisat 1A 23 Oct 08:24:18 08:28:40 88° 297° (WNW) 08:33:04 436.775 MHz
SO-67 23 Oct 08:31:10 08:34:37 84° 282° (WNW) 08:38:02 435.3500 MHz FM
PANSAT 23 Oct 08:34:47 08:38:22 39° 164° (SSE) 08:41:58 not established
JAS-2 23 Oct 08:51:04 08:55:11 15° 298° (WNW) 08:59:18 435.800 - 435.900 CW/SSB, 435.910 FM
STRAND 1 23 Oct 08:59:35 09:01:59 13° 266° (W) 09:04:23 ?
HO-68 23 Oct 10:06:24 10:13:26 55° 102° (ESE) 10:20:25 435.675 MHz FM
RS-15 23 Oct 10:06:27 10:16:58 46° 252° (WSW) 10:27:57 29.354 - 29.394 USB, Beacon 29.352 USB
PANSAT 23 Oct 10:14:33 10:18:22 72° 177° (S) 10:22:11 not established
MaSat-1 23 Oct 10:21:09 10:22:55 17° 63° (ENE) 10:24:37 437.345 MHz
UKube-1 23 Oct 10:33:59 10:37:54 32° 99° (E) 10:41:48 145.840 MHz, 145.915 MHz
FUNcube-1 23 Oct 11:10:36 11:14:20 30° 98° (E) 11:18:00 145.950 - 145.970 MHz USB
Oscar 11 23 Oct 11:16:47 11:21:05 76° 283° (WNW) 11:25:22 145.825 FM, Beacon 2401.500 USB
PANSAT 23 Oct 11:54:40 11:58:26 58° 189° (S) 12:02:12 not established
HO-68 23 Oct 11:55:16 12:00:35 23° 296° (WNW) 12:05:54 435.675 MHz FM
ZACube-1 23 Oct 12:01:20 12:05:28 55° 284° (WNW) 12:09:32 437.345 MHz
UKube-1 23 Oct 12:11:06 12:13:46 16° 291° (WNW) 12:16:27 145.840 MHz, 145.915 MHz
KITSAT 1 23 Oct 12:20:40 12:28:17 48° 109° (ESE) 12:35:55 435.175 FM
ISS 23 Oct 12:21:34 12:23:56 18° 127° (SE) 12:26:19 145.800 FM
FUNcube-1 23 Oct 12:47:56 12:50:24 15° 291° (WNW) 12:52:51 145.950 - 145.970 MHz USB
Oscar 19 23 Oct 13:33:45 13:38:00 27° 70° (ENE) 13:42:14 437.125 CW, 437.150 USB
Sapphire 23 Oct 13:35:08 13:38:47 18° 55° (NE) 13:42:24 437.095 MHz 1200 baud AX-25 AFSK
PANSAT 23 Oct 13:35:11 13:38:18 24° 201° (SSW) 13:41:25 not established
SO-50 23 Oct 13:38:19 13:42:44 86° 117° (ESE) 13:47:19 436.795 FM
AO-27 23 Oct 13:49:08 13:51:51 14° 66° (ENE) 13:54:33 436.795 MHz FM
JAS-1B 23 Oct 13:49:20 13:54:50 34° 72° (ENE) 13:59:54 435.800 - 435.900 CW/SSB
PCSat 23 Oct 13:57:01 14:01:47 31° 60° (ENE) 14:06:31 145.825 MHz
ISS 23 Oct 13:57:36 14:00:28 26° 319° (NW) 14:03:21 145.800 FM
Oscar 10/S400 23 Oct 14:05:01 14:26:37 56° 155° (SSE) 14:48:51 145.825 - 145.975 CW/USB, Beacon 145.810 USB
KITSAT 1 23 Oct 14:16:47 14:23:46 32° 305° (NW) 14:30:49 435.175 FM
Oscar 16 23 Oct 14:18:09 14:23:19 82° 76° (ENE) 14:28:29 437.025 USB, Beacon 2401.1428
AO-Echo 23 Oct 14:26:36 14:31:09 44° 73° (ENE) 14:35:51 ?
Uribyol 2 23 Oct 14:35:03 14:40:01 47° 73° (ENE) 14:45:01 436.500 FM
ITAMSAT 1 23 Oct 14:40:38 14:45:38 50° 74° (ENE) 14:50:40 435.822 SSB
Gurwin Techsat 1B 23 Oct 14:51:42 14:56:19 31° 71° (ENE) 15:00:57 435.225 FM
TMSAT-1 23 Oct 15:04:02 15:08:35 30° 71° (ENE) 15:13:09 436.925 FM
UOSAT-12 23 Oct 15:10:28 15:14:59 65° 115° (ESE) 15:19:37 437.025 FM, 437.400 FM
Oscar 19 23 Oct 15:12:52 15:17:11 27° 263° (W) 15:21:31 437.125 CW, 437.150 USB
Sapphire 23 Oct 15:17:12 15:22:25 49° 250° (WSW) 15:27:37 437.095 MHz 1200 baud AX-25 AFSK
AO-27 23 Oct 15:25:47 15:30:50 53° 259° (W) 15:35:56 436.795 MHz FM
JAS-1B 23 Oct 15:40:30 15:45:28 24° 261° (W) 15:50:04 435.800 - 435.900 CW/SSB
PCSat 23 Oct 15:40:33 15:45:00 26° 253° (WSW) 15:49:26 145.825 MHz
AO-Echo 23 Oct 16:07:37 16:10:06 14° 267° (W) 16:12:37 ?
Uosat F 23 Oct 16:11:37 16:14:55 18° 68° (ENE) 16:18:13 435.120 FM
Uribyol 2 23 Oct 16:16:41 16:19:38 15° 265° (W) 16:22:36 436.500 FM
AO-7 23 Oct 16:21:29 16:29:18 49° 68° (ENE) 16:37:07 29.400 - 29.500 MHz
ITAMSAT 1 23 Oct 16:22:38 16:25:18 14° 266° (W) 16:27:59 435.822 SSB
Gurwin Techsat 1B 23 Oct 16:32:01 16:36:12 24° 264° (W) 16:40:25 435.225 FM
TMSAT-1 23 Oct 16:44:08 16:48:24 25° 263° (W) 16:52:42 436.925 FM
UOSAT-12 23 Oct 16:53:51 16:55:33 12° 310° (NW) 16:57:15 437.025 FM, 437.400 FM
Saudisat 1A 23 Oct 16:58:08 17:00:33 14° 52° (NE) 17:02:58 436.775 MHz
JAS-2 23 Oct 17:11:24 17:15:16 19° 64° (ENE) 17:19:24 435.800 - 435.900 CW/SSB, 435.910 FM
Uosat F 23 Oct 17:48:41 17:53:20 39° 261° (W) 17:58:01 435.120 FM
OPAL 23 Oct 17:53:03 17:56:59 23° 99° (E) 18:00:52 ?
AO-7 23 Oct 18:15:13 18:22:08 30° 261° (W) 18:29:06 29.400 - 29.500 MHz
Hamsat 23 Oct 18:19:38 18:23:42 48° 75° (ENE) 18:27:45 145.90 MHz
Saudisat 1A 23 Oct 18:36:06 18:40:18 45° 247° (WSW) 18:44:30 436.775 MHz
JAS-2 23 Oct 18:54:17 18:59:41 50° 261° (W) 19:05:48 435.800 - 435.900 CW/SSB, 435.910 FM
SO-67 23 Oct 19:00:03 19:01:15 12° 71° (ENE) 19:02:28 435.3500 MHz FM
OPAL 23 Oct 19:31:34 19:35:46 29° 291° (WNW) 19:39:57 ?
STRAND 1 23 Oct 19:34:48 19:39:15 29° 98° (E) 19:43:39 ?
AO-40 23 Oct 20:27:15 23:15:51 26° 109° (ESE) 00:32:25 Beacon 2401.320
HO-68 23 Oct 20:29:58 20:35:11 22° 64° (ENE) 20:40:25 435.675 MHz FM
SO-67 23 Oct 20:31:03 20:33:55 25° 263° (W) 20:36:49 435.3500 MHz FM
ISS 23 Oct 20:31:05 20:33:29 18° 38° (NE) 20:35:52 145.800 FM
STRAND 1 23 Oct 21:14:07 21:18:14 25° 290° (WNW) 21:22:20 ?
UKube-1 23 Oct 21:25:13 21:27:26 14° 68° (ENE) 21:29:39 145.840 MHz, 145.915 MHz
FUNcube-1 23 Oct 22:02:23 22:04:43 14° 69° (ENE) 22:07:03 145.950 - 145.970 MHz USB
Oscar 11 23 Oct 22:05:53 22:09:53 38° 74° (ENE) 22:13:53 145.825 FM, Beacon 2401.500 USB
ISS 23 Oct 22:07:14 22:10:11 30° 231° (SW) 22:13:07 145.800 FM
RS-15 23 Oct 22:09:58 22:20:28 50° 109° (ESE) 22:30:45 29.354 - 29.394 USB, Beacon 29.352 USB
HO-68 23 Oct 22:15:22 22:22:20 56° 258° (WSW) 22:29:22 435.675 MHz FM
KITSAT 1 23 Oct 22:15:28 22:23:11 47° 59° (ENE) 22:30:51 435.175 FM
SO-50 23 Oct 22:16:36 22:19:52 18° 53° (NE) 22:23:07 436.795 FM
ZACube-1 23 Oct 22:51:08 22:55:37 54° 76° (ENE) 23:00:05 437.345 MHz
UKube-1 23 Oct 22:59:13 23:03:14 38° 261° (W) 23:07:18 145.840 MHz, 145.915 MHz
FUNcube-1 23 Oct 23:36:19 23:40:41 42° 261° (W) 23:45:01 145.950 - 145.970 MHz USB
Oscar 11 23 Oct 23:44:09 23:46:08 13° 266° (W) 23:48:08 145.825 FM, Beacon 2401.500 USB
UOSAT-12 23 Oct 23:47:53 23:49:52 12° 50° (NE) 23:51:50 437.025 FM, 437.400 FM
MaSat-1 23 Oct 23:51:09 23:55:03 33° 108° (ESE) 23:58:43 437.345 MHz
SO-50 23 Oct 23:55:58 00:00:35 44° 247° (WSW) 00:05:13 436.795 FM
KITSAT 1 24 Oct 00:11:26 00:18:11 30° 254° (WSW) 00:24:56 435.175 FM
RS-15 24 Oct 00:22:50 00:32:50 39° 307° (NW) 00:42:50 29.354 - 29.394 USB, Beacon 29.352 USB
ZACube-1 24 Oct 00:31:49 00:32:12 10° 267° (W) 00:32:34 437.345 MHz
